Temperature
13 13 13 12 12 12 12 13 13 13 13 13 13 13 13 14 14 14 14 14 14 14 14 15 15 15 15 15 14 14 14 14 14 15 15 14 14 14 14 14 14 14 14
13 13 12 12 12 12 12 13 13 13 13 13 13 13 13 13 14 14 14 14 14 14 14 14 14 14 14 14 14 14 14 14 14 14 14 14 14 14 14 14 14 14 14
13 13 12 12 12 12 12 12 12 12 13 13 13 13 13 13 13 13 13 14 14 14 14 14 14 14 14 14 14 14 14 14 14 14 14 14 14 14 14 14 14 14 14
12 12 12 12 12 12 12 12 12 12 12 12 12 13 13 13 13 13 13 13 13 14 14 14 14 14 14 14 14 14 14 14 14 14 14 14 13 14 14 14 14 14 14
12 12 12 12 12 12 12 12 12 12 12 12 12 13 13 13 13 13 13 13 13 13 13 13 13 13 14 14 14 14 13 13 13 13 14 13 13 13 14 13 14 14 14
12 12 12 12 11 11 12 12 12 12 12 12 12 12 12 12 13 13 13 13 13 13 13 13 13 13 13 13 13 13 13 13 13 13 13 13 13 13 13 13 13 13 13
12 11 11 11 11 11 11 12 12 12 12 12 12 12 12 12 12 13 13 13 13 13 13 13 13 13 13 13 13 13 13 13 13 13 13 13 13 13 13 13 13 13 13
11 11 11 11 11 11 11 11 11 11 11 11 12 12 12 12 12 12 12 12 12 12 13 13 13 13 13 13 13 13 13 13 13 13 13 13 12 12 13 13 13 13 13
11 11 11 11 11 11 11 11 11 11 11 11 11 12 12 12 12 12 12 12 12 12 12 12 12 12 12 12 12 12 12 12 12 12 12 12 12 12 12 12 12 12 12
10 10 10 10 10 10 11 11 11 11 11 11 11 11 11 11 11 12 12 12 12 12 12 12 12 12 12 12 12 12 12 12 12 12 12 12 12 12 12 12 12 12 12
10 10 10 10 10 10 10 10 10 10 10 10 11 11 11 11 11 11 11 11 11 12 12 12 12 12 12 12 12 12 12 12 12 12 12 11 11 11 11 12 12 12 12
10 9 9 10 10 10 10 10 10 10 10 10 10 10 10 10 11 11 11 11 11 11 11 11 11 11 11 11 11 11 11 11 11 11 11 11 11 11 11 11 11 11 11
9 9 9 9 9 9 10 10 10 10 10 10 10 10 10 10 10 10 10 10 10 10 10 11 11 10 11 11 11 11 11 11 11 11 11 11 11 11 11 11 11 11 11
9 9 9 9 9 9 9 9 9 9 9 9 9 9 9 9 9 10 10 10 10 10 10 10 10 10 10 10 10 10 10 10 10 11 11 10 10 10 10 10 10 10 11
8 8 8 8 8 8 9 9 9 9 9 9 9 9 9 9 9 9 9 9 9 9 9 10 10 10 10 10 10 10 10 10 10 10 10 10 10 10 10 10 10 10 10
8 8 8 8 8 8 8 8 8 8 8 8 9 8 8 8 8 8 9 9 9 9 9 9 9 9 9 9 9 9 9 10 10 10 10 10 10 10 10 10 10 10 10
8 8 8 7 7 7 8 8 8 8 8 8 8 8 8 8 8 8 8 8 8 8 8 8 9 9 9 9 9 9 9 9 9 9 9 9 9 9 9 9 9 9 9
7 7 7 7 7 7 7 7 7 7 7 7 7 7 7 7 7 7 7 8 8 8 8 8 8 8 8 8 9 8 8 8 9 9 9 9 9 9 9 9 9 9 9
7 7 7 7 7 7 7 6 7 7 7 7 7 7 7 7 7 7 7 7 7 7 7 7 7 7 8 8 8 8 8 8 8 8 8 8 8 8 8 8 9 9 9
6 6 6 6 6 6 6 6 6 6 6 6 6 6 6 6 6 6 6 6 7 7 7 7 7 7 7 7 7 7 7 8 8 8 8 7 7 8 8 8 8 8 8
6 6 5 6 6 6 5 5 5 6 6 6 6 6 6 6 6 6 6 6 6 6 6 6 6 6 6 6 7 7 7 7 7 7 7 7 7 7 7 7 7 8 8
5 5 5 5 5 5 5 5 5 5 5 5 5 5 5 5 5 5 5 5 5 5 6 6 6 6 6 6 5 5 6 6 6 6 7 7 7 7 7 7 7 7 7
5 5 5 5 5 5 4 4 4 4 4 5 5 5 5 5 5 5 5 5 5 5 5 5 5 5 5 5 5 5 5 5 5 5 6 6 6 6 6 6 6 6 6
5 5 4 4 4 4 4 4 4 4 4 4 4 4 4 4 4 4 4 4 4 4 4 4 4 4 5 5 4 4 4 4 4 4 5 5 5 6 6 6 6 6 6
4 4 4 4 4 4 3 3 3 4 4 4 4 4 4 4 4 4 3 3 4 4 4 4 4 4 4 4 4 4 4 4 4 4 4 5 5 5 5 5 5 5 5
4 4 3 3 3 3 3 3 3 3 3 3 3 3 3 3 3 3 3 3 3 3 3 3 3 3 3 3 3 3 3 3 3 3 3 3 4 5 5 5 5 5 5
Wind_Speed
2 3 2 4 7 7 8 9 10 10 11 11 12 12 12 12 12 12 12 12 13 13 13 13 14 14 14 15 16 16 16 16 16 16 16 16 16 15 15 14 14 13 15
2 3 2 5 7 8 9 9 9 10 10 11 11 12 11 12 12 12 12 12 13 13 13 13 14 13 14 14 15 16 16 16 15 15 15 15 15 15 15 15 14 13 15
2 2 3 6 8 8 9 9 9 9 9 10 11 11 11 11 11 12 12 12 13 13 13 14 14 13 14 14 15 15 15 15 15 15 14 13 13 15 15 15 15 15 15
3 3 2 6 8 9 9 9 9 9 10 10 11 11 11 11 11 11 12 12 12 13 13 13 13 13 13 14 14 14 14 14 14 14 12 12 11 14 14 14 15 15 15
4 4 3 7 8 9 9 9 9 9 9 10 11 11 11 11 11 12 12 12 12 12 13 12 12 13 13 13 13 13 14 14 14 13 12 11 11 12 13 14 14 14 14
4 4 4 7 8 8 9 9 9 8 9 9 10 10 10 11 11 11 12 12 11 12 12 12 11 12 12 12 12 13 13 13 13 12 11 10 10 11 12 13 13 13 13
4 4 4 6 7 8 8 8 8 8 8 9 9 9 10 10 11 11 11 12 11 11 11 11 11 10 11 11 11 12 12 12 12 11 10 9 9 9 11 12 12 12 12
5 5 5 5 7 7 7 8 8 8 8 8 9 9 9 10 10 10 11 11 11 11 10 10 10 10 10 10 10 11 11 11 10 9 8 8 9 9 10 11 11 10 11
6 6 6 5 6 7 7 7 7 8 8 8 8 9 9 10 10 10 10 10 10 10 11 10 10 10 9 9 9 10 10 10 10 8 7 7 8 9 9 9 10 10 10
5 5 5 6 6 7 6 7 7 8 8 8 8 9 10 10 10 10 10 10 10 10 10 10 10 10 9 9 9 9 9 9 9 8 6 6 7 7 8 8 8 9 9
3 4 5 5 6 6 6 7 7 7 8 8 8 9 9 9 9 9 9 9 10 10 9 10 10 10 9 9 9 9 8 8 8 7 5 6 6 7 7 8 8 8 8
1 1 3 4 4 6 6 6 7 7 7 8 8 8 8 8 8 8 9 9 9 9 9 9 10 10 10 9 9 9 8 7 7 6 5 6 6 6 6 7 7 7 7
3 2 2 3 3 4 4 5 5 6 6 7 7 7 7 7 7 7 7 8 8 9 9 9 10 9 9 8 8 8 7 7 6 6 5 6 6 6 6 7 7 7 7
3 2 1 2 3 3 4 4 5 4 5 5 5 6 6 5 5 5 6 6 6 6 7 7 7 8 8 8 7 7 7 6 5 5 6 6 6 5 5 6 6 6 6
3 2 1 2 2 3 3 3 4 3 3 4 4 4 5 4 3 4 4 5 5 5 5 5 5 6 7 7 6 6 6 6 5 5 6 7 6 5 4 5 5 5 5
4 3 2 2 2 3 3 2 3 3 3 4 4 3 4 4 4 3 3 4 4 4 4 4 4 4 4 5 5 5 5 5 5 5 5 5 6 6 4 4 4 4 3
5 4 3 3 2 2 2 3 3 3 3 3 3 3 4 4 4 3 3 2 3 3 4 5 5 5 4 4 4 4 4 4 4 5 5 4 5 5 5 4 4 3 3
4 4 4 3 2 2 2 2 3 3 3 2 3 3 3 3 3 3 2 2 2 3 4 3 3 3 3 2 2 2 3 3 3 3 4 4 4 4 4 4 4 3 3
5 5 4 3 3 2 2 2 3 3 3 2 3 2 2 3 3 3 2 2 3 3 3 2 2 1 2 2 1 1 2 2 2 3 3 3 3 3 3 3 4 3 4
3 4 4 3 3 2 2 2 2 2 2 2 2 2 2 2 3 3 2 2 3 2 2 2 2 2 1 1 1 2 1 1 2 2 1 2 3 3 3 3 3 3 3
3 4 4 4 3 3 2 2 2 1 1 0 1 1 2 2 3 3 2 2 2 2 2 2 1 1 2 1 2 2 2 1 0 1 1 1 2 2 2 2 2 2 2
4 4 4 5 4 4 3 2 1 1 2 1 0 0 1 2 2 3 2 2 2 1 2 2 2 1 1 1 1 1 1 1 1 1 0 0 1 2 2 2 2 2 2
4 5 4 4 4 4 3 2 1 1 1 1 1 1 1 1 2 2 3 2 2 2 2 2 2 2 1 0 1 2 2 2 1 1 1 1 1 1 1 2 1 2 2
5 4 4 4 3 3 3 4 4 3 2 3 2 2 1 2 2 2 2 3 2 2 2 2 2 1 2 2 1 0 1 1 1 1 2 1 2 2 2 2 2 3 2
3 3 3 3 3 3 3 5 5 4 3 1 2 2 2 1 2 2 3 2 2 2 3 2 2 2 2 2 2 1 0 0 1 2 2 2 2 2 2 3 3 3 3
1 2 3 3 3 3 4 4 5 5 4 2 2 3 2 2 2 2 3 3 3 3 3 3 3 3 3 2 2 2 2 2 2 2 3 3 3 3 3 3 3 3 3
Wind_Direction
238 260 247 129 116 106 102 95 88 84 81 80 79 79 78 75 74 74 75 75 74 74 75 78 80 80 78 77 75 73 71 69 67 66 65 69 73 76 76 75 76 76 81
183 218 195 135 121 112 106 99 93 90 87 84 81 80 79 77 74 73 73 75 74 75 75 77 78 81 81 79 77 74 71 69 67 64 63 64 70 75 77 75 76 79 81
115 154 162 135 124 116 110 104 98 92 90 88 85 82 79 77 74 73 73 75 74 74 75 74 75 80 81 81 79 74 71 69 65 62 58 57 66 74 77 76 77 80 80
111 117 124 127 120 115 113 107 101 95 91 88 87 83 80 78 75 73 72 74 74 72 75 75 74 78 82 82 80 77 71 68 64 60 54 53 62 73 76 77 78 79 80
86 95 114 125 120 113 114 110 105 99 93 89 89 85 82 81 78 74 71 71 74 72 71 74 75 77 81 82 82 81 75 68 62 58 53 53 58 70 76 78 78 79 82
76 81 105 120 118 113 113 114 108 102 97 91 88 88 85 82 79 75 71 70 73 74 72 72 76 79 80 81 82 81 75 68 62 56 52 53 58 69 77 79 78 78 82
79 76 98 119 116 112 111 109 106 103 100 95 90 89 88 84 80 77 72 69 69 71 71 69 73 80 79 78 82 81 74 67 61 55 50 51 58 69 79 80 78 78 81
81 72 82 113 113 108 107 107 103 100 99 96 92 88 89 86 81 76 73 70 67 65 67 69 69 75 79 76 80 80 73 68 61 52 47 52 59 69 80 81 79 79 81
75 66 59 72 96 103 100 98 98 95 94 93 91 88 88 84 79 74 71 68 66 65 63 65 68 70 76 75 79 80 75 69 62 52 47 51 62 69 77 83 83 82 81
66 60 59 61 72 80 89 94 93 92 90 87 86 84 81 78 74 70 67 67 64 63 62 61 63 67 69 72 74 79 77 68 59 54 49 54 66 72 77 80 85 85 82
73 54 56 61 68 76 82 86 85 88 87 83 80 80 80 75 71 64 63 65 62 61 60 60 62 62 63 67 68 73 75 67 62 54 52 60 70 76 77 76 80 81 80
130 73 51 58 71 80 85 83 77 77 80 80 79 79 78 76 73 70 62 59 58 58 59 58 58 58 58 63 65 65 66 65 61 50 50 61 70 74 75 76 78 82 80
164 139 73 59 82 87 88 92 86 84 82 80 81 81 81 77 72 68 60 51 51 54 53 53 53 54 58 64 63 62 60 62 56 48 43 59 67 71 73 78 78 76 79
157 162 116 77 86 95 99 99 96 87 86 85 88 90 87 79 68 64 61 53 50 53 55 53 54 53 56 61 65 63 56 54 52 48 42 52 59 66 74 78 78 74 75
171 177 169 111 97 106 102 99 95 92 94 98 95 96 103 93 81 71 64 58 54 58 61 60 59 56 53 55 58 60 53 46 51 53 44 44 52 58 66 74 73 68 69
188 186 178 148 118 113 106 103 102 105 108 105 98 98 108 110 103 88 77 64 53 56 61 67 65 63 53 54 53 50 50 48 51 55 51 43 39 39 53 64 66 66 64
191 180 178 168 127 114 119 123 117 116 119 113 110 112 110 115 116 105 96 78 58 65 68 67 59 59 51 47 45 41 47 51 51 52 53 51 40 32 41 46 49 56 57
179 180 186 171 147 134 123 127 123 127 126 118 117 120 122 127 123 110 103 91 79 85 81 78 66 52 40 35 29 27 39 51 54 56 61 58 52 41 31 33 37 39 39
182 179 182 171 165 153 129 130 126 125 125 121 113 115 132 137 133 121 113 103 105 94 86 87 65 65 55 36 29 23 31 42 46 52 58 58 57 50 40 29 35 32 33
180 174 176 174 160 135 119 103 102 93 90 104 115 129 134 138 138 131 121 104 109 102 94 90 88 62 61 45 49 28 6 17 53 54 55 61 54 47 43 34 35 17 14
169 172 179 180 168 150 159 163 164 178 166 60 101 128 141 145 148 140 127 118 115 128 138 125 99 91 46 36 75 37 7 6 42 31 58 69 42 31 33 29 31 18 345
189 190 189 192 185 182 187 185 184 170 179 193 150 126 155 161 158 161 147 154 150 137 127 133 112 113 71 50 110 113 350 333 321 289 278 184 14 17 8 355 2 351 329
204 202 203 204 196 192 174 136 125 101 102 140 188 220 248 201 175 168 173 166 164 163 173 176 171 154 179 237 116 139 154 222 280 295 261 246 263 275 309 317 334 326 320
221 210 202 198 193 188 176 170 170 183 204 214 207 216 246 217 197 185 182 179 176 180 193 202 195 199 177 194 188 87 163 160 181 278 285 265 267 261 268 295 294 291 290
216 202 197 191 189 183 187 189 188 197 201 189 179 189 210 236 215 202 195 189 191 198 201 203 204 205 205 195 179 178 196 339 208 206 259 286 294 271 266 266 269 269 273
197 186 178 185 196 189 188 192 197 198 188 177 202 203 215 225 236 219 208 203 204 204 204 206 204 206 207 202 196 187 185 186 199 206 234 267 274 272 271 259 245 247 258
Height
1518 1520 1522 1524 1526 1527 1528 1529 1530 1531 1532 1533 1533 1534 1534 1535 1536 1536 1536 1537 1537 1538 1538 1539 1539 1539 1540 1540 1540 1541 1541 1541 1541 1542 1542 1542 1543 1543 1543 1544 1544 1544 1545
1518 1520 1522 1524 1525 1527 1528 1529 1530 1531 1532 1533 1533 1534 1535 1535 1536 1537 1537 1538 1538 1539 1539 1539 1540 1540 1541 1541 1542 1542 1542 1542 1543 1543 1544 1544 1545 1545 1545 1546 1546 1546 1546
1518 1520 1522 1524 1525 1526 1527 1529 1530 1531 1532 1533 1534 1534 1535 1536 1536 1537 1538 1538 1539 1539 1540 1540 1541 1541 1542 1542 1542 1543 1543 1544 1544 1545 1545 1546 1546 1546 1547 1547 1547 1548 1548
1518 1519 1521 1523 1525 1526 1527 1528 1530 1531 1532 1533 1534 1535 1535 1536 1537 1537 1538 1539 1539 1540 1540 1541 1541 1542 1542 1543 1543 1544 1544 1545 1545 1546 1546 1547 1547 1548 1548 1548 1549 1549 1549
1517 1519 1521 1523 1525 1526 1527 1528 1529 1530 1532 1533 1534 1534 1535 1536 1537 1537 1538 1539 1539 1540 1541 1541 1542 1543 1543 1544 1544 1545 1545 1546 1546 1547 1547 1548 1548 1549 1549 1550 1550 1550 1551
1517 1519 1521 1523 1524 1526 1527 1528 1529 1530 1531 1532 1533 1534 1535 1536 1537 1538 1538 1539 1540 1540 1541 1542 1543 1543 1544 1544 1545 1545 1546 1547 1547 1548 1548 1549 1549 1550 1550 1551 1551 1551 1552
1517 1519 1521 1522 1524 1525 1526 1527 1529 1530 1531 1532 1533 1534 1535 1536 1537 1538 1538 1539 1540 1540 1541 1542 1543 1544 1544 1545 1545 1546 1547 1547 1548 1549 1549 1550 1550 1551 1551 1552 1552 1552 1553
1516 1518 1520 1522 1523 1525 1526 1527 1528 1529 1531 1532 1533 1534 1534 1535 1536 1537 1538 1539 1540 1540 1541 1542 1543 1544 1544 1545 1546 1546 1547 1548 1548 1549 1550 1550 1551 1551 1552 1552 1553 1553 1553
1516 1518 1520 1521 1523 1524 1525 1526 1527 1529 1530 1531 1532 1533 1534 1535 1536 1537 1538 1539 1539 1540 1541 1542 1543 1543 1544 1545 1546 1547 1547 1548 1549 1549 1550 1551 1552 1552 1552 1553 1553 1554 1554
1516 1517 1519 1520 1522 1523 1524 1525 1527 1528 1529 1530 1531 1532 1533 1534 1535 1536 1537 1538 1539 1540 1540 1541 1542 1543 1544 1545 1546 1546 1547 1548 1549 1549 1550 1551 1552 1552 1553 1553 1554 1554 1554
1514 1516 1518 1519 1521 1522 1523 1525 1526 1527 1528 1529 1530 1531 1532 1533 1534 1535 1536 1537 1538 1539 1540 1541 1542 1542 1543 1544 1545 1546 1547 1548 1549 1549 1550 1551 1552 1552 1553 1553 1554 1554 1554
1512 1514 1516 1518 1519 1521 1522 1523 1525 1526 1527 1528 1529 1530 1531 1532 1533 1534 1535 1536 1537 1538 1539 1540 1540 1541 1542 1543 1544 1545 1546 1547 1548 1549 1550 1550 1551 1552 1552 1553 1553 1554 1554
1511 1512 1514 1516 1517 1519 1520 1522 1523 1524 1526 1527 1528 1529 1530 1531 1532 1533 1534 1535 1536 1537 1537 1538 1539 1540 1541 1542 1543 1544 1545 1546 1547 1548 1549 1549 1550 1551 1552 1552 1553 1553 1554
1509 1510 1512 1514 1515 1517 1518 1520 1521 1523 1524 1525 1526 1527 1529 1530 1531 1532 1533 1534 1534 1535 1536 1537 1538 1539 1540 1541 1542 1543 1544 1545 1546 1546 1547 1548 1549 1550 1550 1551 1552 1552 1553
1507 1509 1510 1512 1513 1514 1516 1518 1519 1521 1522 1523 1524 1526 1527 1528 1529 1530 1531 1532 1533 1534 1534 1535 1536 1537 1538 1539 1540 1541 1542 1543 1544 1545 1545 1546 1547 1548 1549 1549 1550 1551 1552
1504 1506 1508 1509 1511 1512 1514 1516 1517 1519 1520 1521 1522 1523 1525 1526 1527 1528 1529 1530 1531 1532 1533 1534 1534 1535 1536 1537 1538 1539 1540 1541 1542 1543 1544 1544 1545 1546 1547 1548 1549 1549 1550
1502 1503 1505 1507 1509 1510 1512 1513 1515 1516 1518 1519 1520 1521 1522 1523 1525 1526 1527 1528 1529 1530 1531 1532 1532 1533 1534 1535 1536 1537 1538 1539 1540 1541 1542 1543 1543 1544 1545 1546 1547 1547 1548
1499 1501 1502 1504 1506 1508 1509 1511 1512 1514 1515 1517 1518 1519 1520 1521 1522 1523 1525 1526 1527 1528 1528 1529 1530 1531 1531 1532 1533 1534 1535 1537 1538 1539 1539 1540 1541 1542 1543 1544 1544 1545 1546
1497 1498 1500 1501 1503 1505 1507 1508 1510 1512 1513 1514 1515 1516 1517 1519 1520 1521 1522 1523 1524 1525 1526 1527 1528 1528 1529 1530 1531 1532 1533 1534 1535 1536 1537 1538 1539 1540 1540 1541 1542 1543 1544
1494 1496 1497 1499 1500 1502 1504 1505 1507 1508 1510 1511 1513 1514 1515 1516 1517 1519 1520 1521 1522 1522 1523 1524 1525 1526 1527 1528 1528 1529 1530 1531 1532 1533 1535 1536 1536 1537 1538 1539 1539 1540 1541
1491 1493 1494 1496 1497 1498 1500 1501 1502 1504 1506 1508 1510 1511 1512 1514 1515 1516 1517 1518 1519 1520 1520 1521 1522 1523 1524 1525 1525 1526 1527 1528 1529 1530 1532 1533 1534 1535 1535 1536 1537 1537 1538
1488 1489 1491 1492 1494 1495 1497 1498 1500 1501 1503 1505 1506 1508 1509 1511 1512 1513 1514 1515 1516 1517 1517 1518 1519 1520 1521 1522 1523 1523 1524 1526 1526 1527 1528 1529 1530 1532 1532 1533 1534 1534 1535
1484 1486 1488 1489 1491 1492 1494 1495 1497 1498 1499 1501 1502 1504 1505 1507 1508 1510 1511 1512 1512 1513 1514 1515 1516 1517 1518 1519 1521 1522 1522 1522 1523 1524 1524 1526 1527 1528 1529 1530 1530 1531 1532
1481 1483 1485 1486 1488 1489 1491 1492 1492 1493 1494 1496 1498 1500 1502 1503 1504 1506 1507 1508 1509 1510 1511 1512 1513 1514 1515 1516 1517 1519 1520 1520 1521 1520 1521 1523 1524 1525 1525 1526 1527 1527 1528
1479 1480 1482 1483 1485 1486 1488 1489 1489 1490 1492 1493 1495 1496 1498 1499 1500 1502 1503 1504 1505 1506 1507 1508 1509 1510 1511 1512 1513 1515 1516 1517 1517 1518 1517 1518 1519 1521 1522 1522 1523 1523 1524
1476 1477 1478 1480 1481 1483 1484 1485 1486 1487 1488 1489 1490 1492 1493 1495 1496 1498 1499 1500 1501 1502 1503 1504 1505 1507 1507 1508 1509 1510 1512 1513 1513 1514 1514 1514 1514 1516 1517 1518 1519 1519 1520